Simultaneous Nadir Overpasses (SNOs) Predictions

Prediction of SNOs between LANDSAT-8 and NOAA-19 Satellite Orbit:

Table of predicted SNOs for the next 14.0 days since TLE Epoch: 12/27/2013
Index Date (LANDSAT-8) Time (LANDSAT-8) Lat,Lon (LANDSAT-8) SZA (LANDSAT-8 ) Date (NOAA-19) Time (NOAA-19) Lat,Lon (NOAA-19) SZA (NOAA-19 ) Distance(km) Time Diff (sec)
1 12/27/2013 13:47:20 -71.43, 151.81 85.37 12/27/2013 13:46:21 -71.42, 151.81 85.37 0.95 59
2 12/27/2013 14:36:47 71.33, -40.72 94.53 12/27/2013 14:37:23 71.31, -40.75 94.51 2.27 36
3 12/29/2013 18:31:36 -71.46, 80.79 85.45 12/29/2013 18:30:28 -71.47, 80.71 85.44 3.05 68
4 12/29/2013 19:21:03 71.36,-111.74 94.44 12/29/2013 19:21:30 71.33,-111.80 94.42 3.37 27
5 12/31/2013 23:15:50 -71.59, 9.93 85.48 12/31/2013 23:14:37 -71.64, 9.40 85.42 19.19 73
6 01/01/2014 00:05:20 71.32, 177.13 94.25 01/01/2014 00:05:36 71.32, 177.22 94.25 3.11 16
7 01/03/2014 03:59:59 -71.98, -60.49 85.29 01/03/2014 03:58:50 -72.01, -62.32 85.22 63.11 69
8 01/03/2014 04:49:35 71.38, 106.16 94.12 01/03/2014 04:49:43 71.37, 106.13 94.11 2.25 8
9 01/03/2014 05:39:19 -70.52, -87.55 86.73 01/03/2014 05:40:25 -70.52, -85.16 86.76 88.64 66
10 01/05/2014 09:33:51 71.38, 35.08 93.89 01/05/2014 09:33:49 71.37, 35.11 93.89 1.43 2
11 01/05/2014 10:23:28 -70.90,-158.05 86.59 01/05/2014 10:24:38 -70.92,-156.83 86.59 44.67 70
12 01/07/2014 14:18:06 71.42, -35.93 93.67 01/07/2014 14:17:55 71.39, -35.92 93.64 3.28 11
13 01/07/2014 15:07:37 -71.26,
